Regional Weather Roundup
Issued by NWS

Home | Current Version | Previous Version | Text Only | Print | Product List | Glossary Off
Versions: 1 2 3 4 5 6 7 8 9 10 11 12 13 14 15 16 17 18 19 20 21 22 23 24 25 26 27 28 29 30 31 32 33 34 35 36 37 38 39 40 41 42 43 44 45 46 47 48 49 50

000
ASUS43 KLOT 281010
RWRIL

ILLINOIS REGIONAL WEATHER ROUNDUP
NATIONAL WEATHER SERVICE CHICAGO/ROMEOVILLE IL
500 AM CDT MON JUL 28 2014

NOTE: "FAIR" INDICATES FEW OR NO CLOUDS BELOW 12,000 FEET WITH NO
SIGNIFICANT WEATHER AND/OR OBSTRUCTIONS TO VISIBILITY.

* THESE STATIONS ARE NOT UNDER NWS QUALITY CONTROL. THEY ALSO MAY NOT
  REPORT WEATHER SUCH AS PRECIPITATION OR FOG.

ILZ001-002-007-009-015-016-024-281100-
NORTHWEST ILLINOIS

CITY           SKY/WX    TMP DP  RH WIND       PRES   REMARKS
MOLINE         MOCLDY    64  55  72 N8        30.05R
STERLING*      CLEAR     59  54  82 N9        30.05R
SAVANNA*       CLEAR     60  53  77 N10       30.06R
$$

ILZ003-004-008-010-011-017-018-281100-
NORTH CENTRAL ILLINOIS

CITY           SKY/WX    TMP DP  RH WIND       PRES   REMARKS
ROCKFORD       CLEAR     58  51  78 N7        30.06R
FREEPORT*      CLEAR     56  53  90 NW8       30.07R
ROCHELLE*      CLEAR     56  52  85 N6        30.03R
DE KALB*       CLEAR     56  52  87 NW7       30.02R
PERU*          CLEAR     60  56  87 NW7       30.03R
$$

ILZ005-006-012>014-019>023-281100-
NORTHEAST ILLINOIS

CITY           SKY/WX    TMP DP  RH WIND       PRES   REMARKS
CHICAGO-OHARE  PTCLDY    61  48  62 N10       29.97R
CHICAGO-MIDWAY PTCLDY    63  52  67 NW13      29.97R
AURORA         CLEAR     57  53  86 NW8       30.00R
LANSING*       CLEAR     62  50  65 N7G17     29.96R
JOLIET*        CLEAR     60  50  69 N7        29.99R
WAUKEGAN       CLEAR     57  49  74 NW8       29.97R
DUPAGE AIRPORT CLEAR     58  53  84 NW9       29.98R
KANKAKEE*      CLEAR     60  53  76 NW6       29.97R
WHEELING       CLEAR     61  50  67 N12       29.99R
MORRIS*        CLEAR     58  56  92 CALM      29.99R
ROMEOVILLE*    CLEAR     59  50  72 N9        29.98R
NORTHERLY ISL    N/A     62  51  67 NW9         N/A
$$

LMZ740>746-281100-
SOUTHERN LAKE MICHIGAN

STATION/POSITION SKY/WX   TEMP    WIND        PRES    VSBY  WAVE
                          AIR SEA DIR/SP/G                  HT/PER
                          (F)     (DEG/KT/KT) (MB)    (MI)  (FT/S)
SOUTHERN BUOY              59 59  340/ 23/ 27 1013.0R         8/ 7
WAUKEGAN HARBOR            59     350/ 10/ 16   N/A
HARRISON CRIB              62     330/ 22/ 26   N/A
BURNHAM HARBOR             62     320/  9/ 19   N/A
CALUMET HARBOR             62     320/ 10/ 18 1013.2R
MICHIGAN CITY              62     340/ 25/ 30   N/A
MICHIGAN CITY 6N           62 68  350/ 19/ 27   N/A          10/ 8
ST. JOSEPH                 61 65  350/ 17/ 23   N/A           9/ 7
$$

ILZ025>027-034>036-040-047-049-050-058-095>099-281100-
WEST-CENTRAL ILLINOIS

CITY           SKY/WX    TMP DP  RH WIND       PRES   REMARKS
QUINCY         CLEAR     61  59  93 NW7       30.06R
GALESBURG*     CLEAR     60  57  89 N10       30.04R
MACOMB*        CLEAR     61  60  96 N6        30.07R
JACKSONVILLE*  CLEAR     63  61  93 NW6       30.04R
PITTSFIELD*    CLEAR     64  59  85 NW6       30.06R
$$

ILZ028>032-037-038-041>044-048-051>054-059>061-281100-
CENTRAL ILLINOIS

CITY           SKY/WX    TMP DP  RH WIND       PRES   REMARKS
PONTIAC        CLEAR     61  55  82 N7        30.00R
DECATUR        CLEAR     63  60  90 NW9       29.99R
PEORIA         CLEAR     64  59  83 N6        30.03R
LACON*         MOCLDY    62  56  81 NW6       30.02R
LINCOLN*       PTCLDY    62  60  93 NW3       29.99R
SPRINGFIELD    CLEAR     64  61  90 NW8       30.01R
TAYLORVILLE    CLEAR     61  59  94 NW7       30.00R
$$

ILZ033-039-045-046-055>057-062-063-281100-
EAST-CENTRAL ILLINOIS

CITY           SKY/WX    TMP DP  RH WIND       PRES   REMARKS
CHAMPAIGN      CLEAR     61  57  87 N10       29.98R
DANVILLE*      CLEAR     59  57  92 NW7       29.93R
RANTOUL*       CLEAR     62  55  78 NW5       29.98R
MATTOON        CLEAR     61  59  93 NW8       29.97R
PARIS*         CLEAR     60  59  96 W3        29.97R
$$

ILZ079-100>102-281100-
SOUTHWEST ILLINOIS

CITY           SKY/WX    TMP DP  RH WIND       PRES   REMARKS
ALTON          CLEAR     66  62  89 NW10      30.02R
BELLEVILLE     CLEAR     65  60  84 NW8       30.01R
CAHOKIA*       CLEAR     69  59  70 NW10      30.02R
SPARTA*        CLEAR     63  57  82 W3        30.02R
$$

ILZ064>066-069>071-074>076-080>082-084>086-088>090-092>094-281100-
SOUTH-CENTRAL ILLINOIS

CITY           SKY/WX    TMP DP  RH WIND       PRES   REMARKS
CARBONDALE     CLEAR     64  58  80 NW5       30.00R
CAIRO*         CLEAR     67  59  76 W3        30.01R
EFFINGHAM*     CLEAR     63  58  83 NW7       29.99R
MARION         CLEAR     64  59  82 CALM      30.00R
MT. VERNON     CLEAR     66  55  68 CALM      29.99R
CENTRALIA*     CLEAR     64  58  79 NW7       30.00R
SALEM*         CLEAR    N/A N/A N/A NW7       29.99R
METROPOLIS*    CLEAR     65  56  71 W5        30.00R
$$

ILZ067-068-072-073-078-083-087-091-281100-
SOUTHEAST ILLINOIS

CITY           SKY/WX    TMP DP  RH WIND       PRES   REMARKS
LAWRENCEVILLE  CLEAR     64  60  87 NW12      29.95R
FLORA*         CLEAR     64  59  84 NW8       29.98R
FAIRFIELD*     CLEAR     64  61  88 CALM      29.97R
HARRISBURG*    CLEAR     62  60  93 W3        29.99R
ROBINSON*      MOCLDY    65  62  90 NW8       29.96R
CARMI*         CLEAR     63  61  94 W5        29.97R
$$

ABBREVIATIONS USED IN REMARKS
   TC - TEMPERATURE IN CELSIUS
  WCI - WIND CHILL INDEX
   HX - HEAT INDEX
  VSB - VISIBILITY
$$



USA.gov is the U.S. government's official web portal to all federal, state and local government web resources and services.